Riverside March, CA

9:33 PM PDT on August 19, 2017 (GMT -0700)
March Air Reserve Base

Weather History for KRIV - June, 2013

Change the Weather History Date:

Tuesday, June 18, 2013

  Actual Average Record
Temperature  
Mean Temperature 72 °F -  
Max Temperature 88 °F 83 °F 103 °F (2008)
Min Temperature 55 °F 56 °F 52 °F (2007)
Cooling Degree Days 6    
Growing Degree Days 22 (Base 50)    
Moisture  
Dew Point 54 °F    
Average Humidity 58    
Maximum Humidity 84    
Minimum Humidity 30    
Precipitation  
Precipitation 0.00 in - - ()
Sea Level Pressure  
Sea Level Pressure 29.86 in    
Wind  
Wind Speed 4 mph (WNW)    
Max Wind Speed 15 mph    
Max Gust Speed 20 mph    
Visibility 10 miles    
Events      
Averages and records for this station are not official NWS values.
T = Trace of Precipitation, MM = Missing Value Source: NWS Daily Summary

Daily Weather History Graph

Daily Weather History Graph

Search for Another Location

Airport or City:

Trip Planner

Search our weather history database for the weather conditions in past years. The results will help you decide how hot, cold, wet, or windy it might be!

Date:

Astronomy

Jun. 18, 2013 Rise Set
Actual Time 5:38 AM PDT 8:02 PM PDT
Civil Twilight 5:08 AM PDT 8:31 PM PDT
Nautical Twilight 4:32 AM PDT 9:07 PM PDT
Astronomical Twilight 3:53 AM PDT 9:46 PM PDT
Moon 3:02 PM PDT (6/18) 1:37 AM PDT (6/18)
Length of Visible Light 15h 22m
Length of Day
14h 24m
Waxing Gibbous, 72% of the Moon is Illuminated
Jun 18
Waxing Gibbous
Jun 23
Full
Jun 29
Last Quarter
Jul 8
New
Jul 15
First Quarter

Hourly Weather History & Observations

Time (PDT) Temp. Heat Index Dew Point Humidity Pressure Visibility Wind Dir Wind Speed Gust Speed Precip Events Conditions
12:58 AM 60.6 °F - 50.5 °F 69% 29.91 in 10.0 mi West 2.3 mph - N/A   Clear
1:58 AM 59.9 °F - 50.5 °F 71% 29.90 in 10.0 mi Calm Calm - N/A   Clear
2:58 AM 58.5 °F - 50.9 °F 76% 29.89 in 10.0 mi NW 4.6 mph - N/A   Clear
3:58 AM 59.0 °F - 53.1 °F 81% 29.86 in 10.0 mi Calm Calm - N/A   Clear
4:58 AM 56.5 °F - 49.5 °F 77% 29.87 in 10.0 mi Calm Calm - N/A   Clear
5:58 AM 55.6 °F - 48.4 °F 77% 29.88 in 10.0 mi Calm Calm - N/A   Clear
6:58 AM 63.9 °F - 54.3 °F 71% 29.89 in 10.0 mi Calm Calm - N/A   Clear
7:58 AM 67.5 °F - 55.8 °F 66% 29.89 in 10.0 mi SE 3.5 mph - N/A   Clear
8:58 AM 72.3 °F - 57.0 °F 59% 29.90 in 10.0 mi Calm Calm - N/A   Clear
9:58 AM 77.4 °F - 56.8 °F 49% 29.89 in 10.0 mi Variable 2.3 mph - N/A   Clear
10:58 AM 81.9 °F 81.2 °F 54.7 °F 39% 29.88 in 10.0 mi Variable 2.3 mph - N/A   Clear
11:58 AM 84.4 °F 84.0 °F 58.6 °F 42% 29.88 in 10.0 mi Variable 5.8 mph - N/A   Clear
12:58 PM 85.5 °F 84.6 °F 57.7 °F 39% 29.87 in 10.0 mi NW 5.8 mph - N/A   Clear
1:58 PM 87.4 °F 86.3 °F 57.2 °F 36% 29.86 in 10.0 mi NW 12.7 mph - N/A   Clear
2:58 PM 88.0 °F - 52.7 °F 30% 29.85 in 10.0 mi NW 9.2 mph - N/A   Clear
3:58 PM 86.7 °F 85.1 °F 55.2 °F 34% 29.83 in 10.0 mi WNW 12.7 mph 19.6 mph N/A   Clear
4:58 PM 83.8 °F 82.6 °F 54.3 °F 36% 29.82 in 10.0 mi NW 15.0 mph - N/A   Clear
5:58 PM 82.2 °F 81.4 °F 54.3 °F 38% 29.82 in 10.0 mi NW 15.0 mph - N/A   Clear
6:58 PM 79.3 °F - 53.4 °F 41% 29.83 in 10.0 mi NNW 12.7 mph - N/A   Clear
7:58 PM 72.9 °F - 55.9 °F 55% 29.83 in 10.0 mi WNW 6.9 mph - N/A   Clear
8:58 PM 68.4 °F - 55.4 °F 63% 29.84 in 10.0 mi WNW 5.8 mph - N/A   Clear
9:58 PM 65.7 °F - 57.6 °F 75% 29.85 in 10.0 mi WNW 4.6 mph - N/A   Clear
10:58 PM 63.3 °F - 57.7 °F 82% 29.85 in 10.0 mi West 3.5 mph - N/A   Clear
11:58 PM 61.2 °F - 56.3 °F 84% 29.84 in 10.0 mi Calm Calm - N/A   Clear